Retour au catalogue

STARLINK-32591

ActifCommunicationsVLEO
NORAD 61718·PAYLOAD·🇺🇸 United States

Lancé Oct 30, 2024 depuis Cape Canaveral Space Force Station

Loading…

Prochains Passages (prochaines 24 heures)

TLE

FraisSource: CelesTrak SupGP

Époque: Sep 15, 2026, 03:05 UTC

1 61718C 24196M   26258.12895833  .00003785  00000+0  11181-3 0  2582
2 61718  53.1571 284.5210 0001179  91.8746  67.4743 15.34393149    16

Suivez STARLINK-32591 en temps réel avec AllMySat

Download on the App Store